Weather History for Toledo, OH

Change the Weather History Date:

Thursday, December 26, 2013

  Actual Average Record
Temperature  
Mean Temperature 27 °F 27 °F  
Max Temperature 28 °F 34 °F 62 °F (1888)
Min Temperature 25 °F 20 °F -13 °F (1944)
Degree Days  
Heating Degree Days 38 38  
Month to date heating degree days 976 900  
Since 1 July heating degree days 2324 2133  
Cooling Degree Days 0 0  
Month to date cooling degree days 0 0  
Year to date cooling degree days 793 793  
Moisture  
Dew Point 20 °F    
Average Humidity 77    
Maximum Humidity 92    
Minimum Humidity 62    
Precipitation  
Precipitation 0.04 in 0.08 in 0.58 in (1973)
Month to date precipitation 3.02 2.27  
Year to date precipitation 36.78 33.83  
Snow  
Snow 0.70 in 0.30 in - ()
Month to date snowfall 10.4 5.8  
Since 1 July snowfall 10.9 7.9  
Snow Depth 1.00 in    
Sea Level Pressure  
Sea Level Pressure 30.19 in    
Wind  
Wind Speed 11 mph (SW)    
Max Wind Speed 23 mph    
Max Gust Speed 29 mph    
Visibility 8 miles    
Events Snow    
T = Trace of Precipitation, MM = Missing Value Source: NWS Daily Summary

Daily Weather History Graph

Daily Weather History Graph

Search for Another Location

Airport:

Trip Planner

Search our weather history database for the weather conditions in past years. The results will help you decide how hot, cold, wet, or windy it might be!

Date:

Astronomy

Dec. 26, 2013 Rise Set
Actual Time 8:00 AM EST 5:11 PM EST
Civil Twilight 7:29 AM EST 5:42 PM EST
Nautical Twilight 6:54 AM EST 6:17 PM EST
Astronomical Twilight 6:20 AM EST 6:51 PM EST
Moon 1:24 AM EST (12/26) 12:49 PM EST (12/26)
Length of Visible Light 10h 13m
Length of Day
9h 10m
Last Quarter, 38% of the Moon is Illuminated
Dec 26
Last Quarter
Jan 1
New
Jan 7
First Quarter
Jan 15
Full
Jan 24
Last Quarter

Hourly Weather History & Observations

Time (EST) Temp. Windchill Dew Point Humidity Pressure Visibility Wind Dir Wind Speed Gust Speed Precip Events Conditions
12:52 AM 26.1 °F 18.4 °F 21.9 °F 84% 30.13 in 10.0 mi SW 6.9 mph - N/A   Overcast
1:12 AM 26.6 °F 20.0 °F 21.2 °F 80% 30.08 in 10.0 mi SSW 5.8 mph - 0.00 in Snow Light Snow
1:52 AM 26.1 °F 16.2 °F 23.0 °F 88% 30.10 in 5.0 mi SSW 10.4 mph - 0.00 in Snow Light Snow
2:03 AM 26.6 °F 18.2 °F 23.0 °F 86% 30.07 in 1.8 mi SSW 8.1 mph - 0.00 in Snow Light Snow
2:11 AM 26.6 °F 18.2 °F 24.8 °F 93% 30.07 in 2.0 mi SSW 8.1 mph - 0.01 in Snow Light Snow
2:27 AM 26.6 °F 19.1 °F 24.8 °F 93% 30.07 in 2.5 mi SSW 6.9 mph - 0.01 in Snow Light Snow
2:36 AM 26.6 °F 18.2 °F 24.8 °F 93% 30.06 in 1.5 mi SSW 8.1 mph - 0.02 in Snow Light Snow
2:49 AM 26.6 °F 19.1 °F 24.8 °F 93% 30.06 in 3.0 mi SW 6.9 mph - 0.02 in Snow Light Snow
2:52 AM 26.1 °F 17.6 °F 24.1 °F 92% 30.09 in 4.0 mi SSW 8.1 mph - 0.02 in Snow Light Snow
3:52 AM 27.0 °F 18.7 °F 24.1 °F 89% 30.09 in 6.0 mi SW 8.1 mph - 0.01 in Snow Light Snow
4:01 AM 26.6 °F 16.2 °F 24.8 °F 93% 30.06 in 8.0 mi SW 11.5 mph 16.1 mph 0.00 in Snow Light Snow
4:10 AM 26.6 °F 17.5 °F 24.8 °F 93% 30.06 in 9.0 mi SW 9.2 mph - 0.00 in Snow Light Snow
4:52 AM 28.0 °F 18.1 °F 25.0 °F 88% 30.09 in 9.0 mi SW 11.5 mph 18.4 mph 0.00 in Snow Light Snow
5:52 AM 28.0 °F 17.5 °F 25.0 °F 88% 30.11 in 4.0 mi WSW 12.7 mph - 0.00 in Snow Light Snow
6:23 AM 28.4 °F 16.6 °F 24.8 °F 86% 30.09 in 8.0 mi West 16.1 mph - 0.01 in Snow Light Snow
6:50 AM 28.4 °F 15.1 °F 21.2 °F 74% 30.10 in 10.0 mi West 20.7 mph 27.6 mph 0.01 in   Overcast
6:52 AM 28.0 °F 14.6 °F 21.9 °F 78% 30.13 in 10.0 mi West 20.7 mph 27.6 mph 0.01 in   Overcast
7:52 AM 25.0 °F 12.2 °F 19.9 °F 81% 30.17 in 10.0 mi WSW 16.1 mph - N/A   Mostly Cloudy
8:52 AM 25.0 °F 11.7 °F 18.0 °F 75% 30.19 in 10.0 mi WSW 17.3 mph - N/A   Mostly Cloudy
9:52 AM 26.1 °F 14.0 °F 19.0 °F 75% 30.22 in 10.0 mi WSW 15.0 mph - N/A   Clear
10:52 AM 27.0 °F 13.9 °F 19.0 °F 72% 30.25 in 10.0 mi WSW 18.4 mph 26.5 mph N/A   Scattered Clouds
11:52 AM 26.1 °F 13.1 °F 19.0 °F 75% 30.27 in 10.0 mi WSW 17.3 mph - N/A   Overcast
12:08 PM 24.8 °F 11.9 °F 17.6 °F 74% 30.24 in 10.0 mi WSW 16.1 mph 26.5 mph N/A   Overcast
12:52 PM 25.0 °F 10.6 °F 19.0 °F 78% 30.28 in 10.0 mi WSW 20.7 mph - N/A   Overcast
1:05 PM 24.8 °F 10.7 °F 17.6 °F 74% 30.25 in 10.0 mi West 19.6 mph - N/A   Overcast
1:36 PM 24.8 °F 11.9 °F 17.6 °F 74% 30.25 in 10.0 mi West 16.1 mph - N/A   Overcast
1:52 PM 26.1 °F 13.1 °F 18.0 °F 71% 30.28 in 10.0 mi West 17.3 mph - N/A   Overcast
2:52 PM 27.0 °F 15.6 °F 17.1 °F 66% 30.28 in 10.0 mi WSW 13.8 mph - N/A   Overcast
3:20 PM 26.6 °F 14.7 °F 17.6 °F 69% 30.26 in 10.0 mi West 15.0 mph - N/A   Scattered Clouds
3:52 PM 26.1 °F 15.0 °F 16.0 °F 66% 30.30 in 10.0 mi West 12.7 mph - N/A   Scattered Clouds
4:52 PM 25.0 °F 14.2 °F 16.0 °F 69% 30.32 in 10.0 mi WSW 11.5 mph - N/A   Mostly Cloudy
5:52 PM 25.0 °F 17.1 °F 14.0 °F 63% 30.32 in 10.0 mi SW 6.9 mph - N/A   Overcast
6:52 PM 25.0 °F 19.3 °F 14.0 °F 63% 30.32 in 10.0 mi SW 4.6 mph - N/A   Overcast
7:52 PM 26.1 °F 20.5 °F 16.0 °F 66% 30.32 in 10.0 mi SSW 4.6 mph - N/A   Overcast
8:52 PM 26.1 °F - 18.0 °F 71% 30.30 in 10.0 mi Calm Calm - N/A   Overcast
9:52 PM 26.1 °F 20.5 °F 19.9 °F 78% 30.29 in 10.0 mi South 4.6 mph - N/A   Overcast
10:52 PM 27.0 °F 23.0 °F 19.9 °F 75% 30.28 in 10.0 mi South 3.5 mph - N/A   Overcast
11:52 PM 28.0 °F - 21.0 °F 75% 30.29 in 10.0 mi Calm Calm - N/A   Overcast